Location: Newark
(7.0858°N, 171.3717°E)
Time: 09:45:10
(UTC+00:00)

S-56A Canister/Altair - Pass Details

Date: 29 November 2020
Orbit: 633 x 2499 km, 38.9° (Epoch: 27 January)

Event Time Altitude Azimuth Distance (km) Brightness Sun altitude
Rises 05:09:55 0° 232° (SW) 6,144 13.8 14.1°
Reaches altitude 10° 05:13:56 10° 233° (SW) 5,161 13.9 13.2°
Maximum altitude 05:29:07 78° 318° (NW) 2,309 10.2 9.7°
Drops below altitude 10° 05:40:59 10° 44° (NE) 4,137 10.7 7.0°
Sets 05:43:51 0° 46° (NE) 4,908 11.0 6.4°
